Regional Weather Roundup
Issued by NWS

Home | Current Version | Previous Version | Text Only | Print | Product List | Glossary On
Versions: 1 2 3 4 5 6 7 8 9 10 11 12 13 14 15 16 17 18 19 20 21 22 23 24 25 26 27 28 29 30 31 32 33 34 35 36 37 38 39 40 41 42 43 44 45 46 47 48 49 50
000
ASUS45 KREV 231810
RWRNV
NEVADA REGIONAL WEATHER ROUNDUP
NATIONAL WEATHER SERVICE RENO NV
1100 AM PDT SAT SEP 23 2017

NOTE: "FAIR" INDICATES FEW OR NO CLOUDS BELOW 12,000 FEET WITH NO
SIGNIFICANT WEATHER AND/OR OBSTRUCTIONS TO VISIBILITY.

NVZ001-003-004-231900-
WESTERN NEVADA

CITY           SKY/WX    TMP DP  RH WIND       PRES   REMARKS
RENO           MOSUNNY   51  27  39 VRB6      30.06S
6HR MIN TEMP:  34; 6HR MAX TEMP:  51;

CARSON CITY    FAIR      52  25  35 NE8       30.06F
MINDEN         FAIR      48  28  46 S3        30.05F
SLIDE MTN        N/A     27  25  93 E17         N/A
FALLON         MOSUNNY   50  30  46 CALM      30.05F
6HR MIN TEMP:  29; 6HR MAX TEMP:  50;

LOVELOCK       SUNNY     53  29  39 CALM      30.05F
6HR MIN TEMP:  26; 6HR MAX TEMP:  53;

HAWTHORNE      SUNNY     50  34  53 NW13      30.05S
$$

NVZ002-CAZ072-073-231900-
NORTHERN AND CENTRAL SIERRA

CITY           SKY/WX    TMP DP  RH WIND       PRES   REMARKS
S. LAKE TAHOE  SUNNY     44  23  43 MISG      30.02S
6HR MIN TEMP:  25; 6HR MAX TEMP:  44;

TRUCKEE        SUNNY     43  28  56 CALM      30.05S
SQUAW VLY 8000   N/A     32  25  74 E6          N/A
SUSANVILLE     SUNNY     52  28  40 CALM      30.07F
BLUE CANYON    SUNNY     51  24  34 VRB6      30.01R
MAMMOTH LAKES  FAIR      44  18  35 W5        30.04S
6HR MIN TEMP:  28; 6HR MAX TEMP:  44;

BRIDGEPORT     FAIR      43  20  39 VRB5      30.01S
$$

NVZ030-031-036-231900-
NORTHERN NEVADA

CITY           SKY/WX    TMP DP  RH WIND       PRES   REMARKS
ELKO           CLOUDY    37  34  89 CALM      30.05S
6HR MIN TEMP:  29; 6HR MAX TEMP:  37;

WINNEMUCCA     SUNNY     52  30  43 N13       30.06F
6HR MIN TEMP:  20; 6HR MAX TEMP:  52;

WENDOVER       SUNNY     51  32  48 N10G18    29.99F
$$

NVZ035-037-231900-
CENTRAL NEVADA

CITY           SKY/WX    TMP DP  RH WIND       PRES   REMARKS
ELY            CLOUDY    40  34  79 N12       29.99F
6HR MIN TEMP:  29; 6HR MAX TEMP:  40;

EUREKA           N/A     40  31  70 NE7       30.03S
6HR MIN TEMP:  30; 6HR MAX TEMP:  40;

$$

NVZ013-014-231900-
SOUTH CENTRAL NEVADA

CITY           SKY/WX    TMP DP  RH WIND       PRES   REMARKS
TONOPAH        MOSUNNY   50  40  68 N10       29.99F
6HR MIN TEMP:  35; 6HR MAX TEMP:  51;

$$

NVZ017-020-022-231900-
SOUTHERN NEVADA

CITY           SKY/WX    TMP DP  RH WIND       PRES   REMARKS
LAS VEGAS      MOSUNNY   70  29  21 N18G25    29.85S
6HR MIN TEMP:  59; 6HR MAX TEMP:  70;

N. LAS VEGAS   MOSUNNY   69  27  20 NW20G28   29.84S
6HR MIN TEMP:  60; 6HR MAX TEMP:  69;

NELLIS AFB     MOSUNNY   67  31  26 N3        29.84F
6HR MIN TEMP:  57; 6HR MAX TEMP:  68;

HENDERSON      SUNNY     67  29  24 NE14G22   29.87F
6HR MIN TEMP:  57; 6HR MAX TEMP:  68;

MERCURY        SUNNY     62  30  29 MISG      29.91S
6HR MIN TEMP:  53; 6HR MAX TEMP:  62;

$$



USA.gov is the U.S. government's official web portal to all federal, state and local government web resources and services.